When you browse on this site, cookies collect data to enhance your experience and personalize the content and advertising you see.
Visit our Privacy Policy to learn more. By continuing to use the site, you agree to this use of cookies and data.
  • în România
  • Lista ţărilor
  • Pe 7 zile
  • Temperatura apei
  • Hartă satelitară
  • Meteo pe hartă
  • Widget-uri
  • user-avatar
    Intrare

    Meteo pe oră la Las-Vegas

    Astăzi, 10 Decembrie, Luni

    Timp Temperatura Precipitaţii Vânt Presiune Umiditate
    00:00 +11°C° 0 mm 1 m/s 713 mmHg 40%
    01:00 +11°C° 0 mm 1 m/s 713 mmHg 40%
    02:00 +11°C° 0 mm 1 m/s 713 mmHg 40%
    03:00 +11°C° 0 mm 1 m/s 712 mmHg 39%
    04:00 +11°C° 0 mm 1 m/s 712 mmHg 39%
    05:00 +10°C° 0 mm 1 m/s 712 mmHg 39%
    06:00 +10°C° 0 mm 1 m/s 712 mmHg 39%
    07:00 +10°C° 0 mm 1 m/s 712 mmHg 39%
    08:00 +12°C° 0 mm 1 m/s 712 mmHg 34%
    09:00 +13°C° 0 mm 1 m/s 712 mmHg 30%
    10:00 +15°C° 0 mm 1 m/s 712 mmHg 26%
    11:00 +16°C° 0 mm 1 m/s 712 mmHg 25%
    12:00 +18°C° 0 mm 1 m/s 711 mmHg 23%
    13:00 +18°C° 0 mm 1 m/s 710 mmHg 22%
    14:00 +18°C° 0 mm 1 m/s 710 mmHg 24%
    15:00 +18°C° 0 mm 1 m/s 709 mmHg 26%
    16:00 +16°C° 0 mm 2 m/s 709 mmHg 28%
    17:00 +15°C° 0 mm 1 m/s 709 mmHg 30%
    18:00 +15°C° 0 mm 1 m/s 708 mmHg 32%
    19:00 +14°C° 0 mm 1 m/s 708 mmHg 34%
    20:00 +13°C° 0 mm 1 m/s 708 mmHg 34%
    21:00 +13°C° 0 mm 1 m/s 708 mmHg 35%
    22:00 +12°C° 0 mm 1 m/s 708 mmHg 35%
    23:00 +12°C° 0 mm 1 m/s 708 mmHg 35%

    Mâine, 11 Decembrie, Marţi

    Timp Temperatura Precipitaţii Vânt Presiune Umiditate
    00:00 +12°C° 0 mm 1 m/s 709 mmHg 35%
    01:00 +12°C° 0 mm 1 m/s 709 mmHg 36%
    02:00 +11°C° 0 mm 1 m/s 709 mmHg 36%
    03:00 +11°C° 0 mm 1 m/s 709 mmHg 36%
    04:00 +11°C° 0 mm 1 m/s 709 mmHg 36%
    05:00 +9°C° 0 mm 2 m/s 710 mmHg 36%
    06:00 +9°C° 0 mm 2 m/s 710 mmHg 37%
    07:00 +9°C° 0 mm 2 m/s 711 mmHg 37%
    08:00 +12°C° 0 mm 2 m/s 711 mmHg 34%
    09:00 +14°C° 0 mm 2 m/s 712 mmHg 30%
    10:00 +14°C° 0 mm 3 m/s 713 mmHg 27%
    11:00 +16°C° 0 mm 3 m/s 712 mmHg 26%
    12:00 +17°C° 0 mm 3 m/s 712 mmHg 26%
    13:00 +17°C° 0 mm 4 m/s 711 mmHg 25%
    14:00 +17°C° 0 mm 3 m/s 711 mmHg 26%
    15:00 +16°C° 0 mm 3 m/s 711 mmHg 27%
    16:00 +16°C° 0 mm 2 m/s 711 mmHg 28%
    17:00 +15°C° 0 mm 2 m/s 712 mmHg 30%
    18:00 +13°C° 0 mm 2 m/s 712 mmHg 31%
    19:00 +12°C° 0 mm 1 m/s 712 mmHg 33%
    20:00 +12°C° 0 mm 1 m/s 712 mmHg 34%
    21:00 +11°C° 0 mm 1 m/s 713 mmHg 34%
    22:00 +11°C° 0 mm 1 m/s 713 mmHg 34%
    23:00 +10°C° 0 mm 1 m/s 713 mmHg 36%

    Poimâine, 12 Decembrie, Miercuri

    Timp Temperatura Precipitaţii Vânt Presiune Umiditate
    00:00 +10°C° 0 mm 1 m/s 712 mmHg 37%
    01:00 +9°C° 0 mm 1 m/s 712 mmHg 39%
    02:00 +9°C° 0 mm 1 m/s 712 mmHg 40%
    03:00 +9°C° 0 mm 1 m/s 711 mmHg 41%
    04:00 +8°C° 0 mm 0 m/s 711 mmHg 42%
    05:00 +8°C° 0 mm 1 m/s 712 mmHg 42%
    06:00 +8°C° 0 mm 1 m/s 712 mmHg 42%
    07:00 +8°C° 0 mm 1 m/s 712 mmHg 42%
    08:00 +11°C° 0 mm 1 m/s 713 mmHg 37%
    09:00 +13°C° 0 mm 1 m/s 713 mmHg 31%
    10:00 +15°C° 0 mm 1 m/s 714 mmHg 26%
    11:00 +16°C° 0 mm 2 m/s 714 mmHg 24%
    12:00 +17°C° 0 mm 2 m/s 714 mmHg 22%
    13:00 +18°C° 0 mm 3 m/s 714 mmHg 20%
    14:00 +17°C° 0 mm 2 m/s 714 mmHg 22%
    15:00 +17°C° 0 mm 2 m/s 714 mmHg 24%
    16:00 +16°C° 0 mm 2 m/s 714 mmHg 27%
    17:00 +15°C° 0 mm 2 m/s 715 mmHg 27%
    18:00 +14°C° 0 mm 2 m/s 715 mmHg 28%
    19:00 +13°C° 0 mm 2 m/s 716 mmHg 29%
    20:00 +11°C° 0 mm 3 m/s 716 mmHg 28%
    21:00 +11°C° 0 mm 3 m/s 717 mmHg 28%
    22:00 +10°C° 0 mm 3 m/s 717 mmHg 27%
    23:00 +9°C° 0 mm 2 m/s 717 mmHg 27%

    13 Decembrie, Joi

    Timp Temperatura Precipitaţii Vânt Presiune Umiditate
    00:00 +9°C° 0 mm 2 m/s 717 mmHg 28%
    01:00 +8°C° 0 mm 2 m/s 717 mmHg 29%
    02:00 +7°C° 0 mm 2 m/s 717 mmHg 30%
    03:00 +7°C° 0 mm 2 m/s 717 mmHg 31%
    04:00 +7°C° 0 mm 2 m/s 717 mmHg 32%
    05:00 +6°C° 0 mm 2 m/s 717 mmHg 32%
    06:00 +6°C° 0 mm 2 m/s 718 mmHg 32%
    07:00 +7°C° 0 mm 1 m/s 718 mmHg 32%
    08:00 +8°C° 0 mm 1 m/s 718 mmHg 28%
    09:00 +10°C° 0 mm 1 m/s 718 mmHg 23%
    10:00 +12°C° 0 mm 1 m/s 718 mmHg 19%
    11:00 +13°C° 0 mm 1 m/s 717 mmHg 18%
    12:00 +14°C° 0 mm 1 m/s 717 mmHg 16%
    13:00 +15°C° 0 mm 1 m/s 716 mmHg 14%
    14:00 +14°C° 0 mm 1 m/s 716 mmHg 16%
    15:00 +14°C° 0 mm 1 m/s 715 mmHg 17%
    16:00 +14°C° 0 mm 1 m/s 715 mmHg 19%
    17:00 +13°C° 0 mm 1 m/s 715 mmHg 20%
    18:00 +12°C° 0 mm 1 m/s 714 mmHg 21%
    19:00 +11°C° 0 mm 1 m/s 714 mmHg 22%
    20:00 +10°C° 0 mm 1 m/s 714 mmHg 22%
    21:00 +10°C° 0 mm 1 m/s 714 mmHg 22%
    22:00 +9°C° 0 mm 0 m/s 714 mmHg 22%
    23:00 +9°C° 0 mm 1 m/s 713 mmHg 21%

    14 Decembrie, Vineri

    Timp Temperatura Precipitaţii Vânt Presiune Umiditate
    00:00 +9°C° 0 mm 1 m/s 713 mmHg 20%
    01:00 +9°C° 0 mm 1 m/s 712 mmHg 19%
    02:00 +9°C° 0 mm 1 m/s 712 mmHg 19%
    03:00 +9°C° 0 mm 1 m/s 712 mmHg 19%
    04:00 +8°C° 0 mm 1 m/s 711 mmHg 18%
    05:00 +9°C° 0 mm 1 m/s 711 mmHg 18%
    06:00 +9°C° 0 mm 1 m/s 711 mmHg 18%
    07:00 +9°C° 0 mm 1 m/s 711 mmHg 19%
    08:00 +10°C° 0 mm 1 m/s 711 mmHg 16%
    09:00 +12°C° 0 mm 1 m/s 711 mmHg 14%
    10:00 +14°C° 0 mm 1 m/s 711 mmHg 12%
    11:00 +14°C° 0 mm 1 m/s 710 mmHg 12%
    12:00 +15°C° 0 mm 1 m/s 709 mmHg 12%
    13:00 +15°C° 0 mm 1 m/s 708 mmHg 13%
    14:00 +15°C° 0 mm 1 m/s 708 mmHg 14%
    15:00 +14°C° 0 mm 2 m/s 707 mmHg 16%
    16:00 +14°C° 0 mm 2 m/s 707 mmHg 18%
    17:00 +13°C° 0 mm 2 m/s 707 mmHg 18%
    18:00 +13°C° 0 mm 2 m/s 706 mmHg 18%
    19:00 +12°C° 0 mm 2 m/s 706 mmHg 18%
    20:00 +12°C° 0 mm 2 m/s 706 mmHg 18%
    21:00 +12°C° 0 mm 2 m/s 706 mmHg 18%
    22:00 +12°C° 0 mm 2 m/s 706 mmHg 18%
    23:00 +12°C° 0 mm 2 m/s 705 mmHg 18%

    15 Decembrie, Sâmbătă

    Timp Temperatura Precipitaţii Vânt Presiune Umiditate
    00:00 +10°C° 0 mm 2 m/s 705 mmHg 19%
    01:00 +10°C° 0 mm 2 m/s 705 mmHg 20%
    02:00 +10°C° 0 mm 2 m/s 705 mmHg 20%
    03:00 +9°C° 0 mm 2 m/s 705 mmHg 21%
    04:00 +9°C° 0 mm 2 m/s 705 mmHg 22%
    05:00 +9°C° 0 mm 2 m/s 705 mmHg 23%
    06:00 +8°C° 0 mm 2 m/s 706 mmHg 24%
    07:00 +8°C° 0 mm 2 m/s 707 mmHg 25%
    08:00 +10°C° 0 mm 2 m/s 708 mmHg 23%
    09:00 +12°C° 0 mm 2 m/s 709 mmHg 22%
    10:00 +14°C° 0 mm 1 m/s 709 mmHg 20%
    11:00 +15°C° 0 mm 1 m/s 709 mmHg 19%
    12:00 +15°C° 0 mm 1 m/s 709 mmHg 18%
    13:00 +16°C° 0 mm 1 m/s 709 mmHg 17%
    14:00 +15°C° 0 mm 1 m/s 709 mmHg 19%
    15:00 +15°C° 0 mm 1 m/s 709 mmHg 21%
    16:00 +15°C° 0 mm 1 m/s 709 mmHg 22%
    17:00 +13°C° 0 mm 1 m/s 710 mmHg 24%
    18:00 +11°C° 0 mm 0 m/s 710 mmHg 26%
    19:00 +10°C° 0 mm 0 m/s 711 mmHg 28%
    20:00 +10°C° 0 mm 0 m/s 711 mmHg 28%
    21:00 +9°C° 0 mm 0 m/s 711 mmHg 28%
    22:00 +9°C° 0 mm 0 m/s 712 mmHg 29%
    23:00 +10°C° 0 mm 1 m/s 712 mmHg 29%
    Arată mai mult